This demonstration page uses our WeatherBlox Daily Observations layout. Learn more.

Left ArrowRight Arrow

44.8408, -93.29828

Hourly Observations for May 19, 2022

Temp ( °F °C ) Dew Point ( °F °C ) Humidity (%) Winds ( mph kmh ) Pressure ( in mb ) Visibility ( mi km ) Precip ( " mm )
12:53 am 00:53 Clear 62 16.7 46 7.8 56 56 NNW 9 15 29.67 1005 10 16 0.00 0.00
1:53 am 01:53 Clear 59 15 46 7.8 62 62 WNW 5 7 29.66 1004 10 16 0.00 0.00
2:53 am 02:53 Clear 59 15 46 7.8 62 62 WSW 5 7 29.66 1004 10 16 0.00 0.00
3:53 am 03:53 Mostly Clear 56 13.3 46 7.8 70 70 Calm 29.65 1004 10 16 0.00 0.00
4:53 am 04:53 Mostly Clear 56 13.3 47 8.3 72 72 WSW 3 6 29.65 1004 10 16 0.00 0.00
5:53 am 05:53 Mostly Sunny 54 12.2 46 7.8 75 75 NW 3 6 29.64 1004 10 16 0.00 0.00
6:53 am 06:53 Partly Cloudy 57 13.9 48 8.9 72 72 SW 3 6 29.64 1004 10 16 0.00 0.00
7:53 am 07:53 Mostly Sunny 61 16.1 48 8.9 63 63 WSW 3 6 29.63 1003 10 16 0.00 0.00
8:53 am 08:53 Partly Cloudy 64 17.8 46 7.8 52 52 Calm 29.61 1003 10 16 0.00 0.00
9:53 am 09:53 Mostly Cloudy 64 17.8 47 8.3 54 54 VRB 5 7 29.57 1002 10 16 0.00 0.00
10:53 am 10:53 Mostly Cloudy 67 19.4 46 7.8 47 47 SSE 8 13 29.53 1000 10 16 0.00 0.00
11:43 am 11:43 Mostly Cloudy 69 20.6 46 7.8 44 44 ESE 8 13 29.47 998 10 16 0.00 0.00
11:53 am 11:53 Mostly Cloudy 69 20.6 46 7.8 44 44 S 9 15 29.48 998 10 16 0.00 0.00
12:23 pm 12:23 Cloudy 68 20 45 7.2 44 44 SW 5 7 29.53 1000 10 16 0.00 0.00
12:29 pm 12:29 Cloudy 67 19.4 45 7.2 45 45 E 14 22 29.44 997 10 16 0.00 0.00
12:53 pm 12:53 Mostly Cloudy 71 21.7 50 10 47 47 E 12 19 29.44 997 10 16 0.00 0.00
1:53 pm 13:53 Cloudy 72 22.2 49 9.4 44 44 SE 12 19 29.42 996 10 16 0.00 0.00
2:53 pm 14:53 Cloudy 71 21.7 47 8.3 42 42 SE 15 24 29.36 994 10 16 0.00 0.00
3:19 pm 15:19 Cloudy with Nearby Thunderstorms 69 20.6 48 8.9 47 47 ESE 22 35 29.31 992 10 16 0.00 0.00
3:43 pm 15:43 Cloudy with Thunderstorms 68 20 50 10 53 53 VRB 6 9 29.34 994 10 16 0.00 0.00
3:53 pm 15:53 Cloudy with Thunderstorms 69 20.6 50 10 51 51 ENE 8 13 29.35 994 10 16 0.00 0.00
4:12 pm 16:12 Cloudy with Nearby Thunderstorms 70 21.1 52 11.1 53 53 E 16 26 29.29 992 10 16 0.00 0.00
4:20 pm 16:20 Cloudy 66 18.9 53 11.7 63 63 NNE 14 22 29.31 993 10 16 0.00 0.00
4:53 pm 16:53 Mostly Cloudy 66 18.9 55 12.8 68 68 ENE 15 24 29.27 991 10 16 0.00 0.00
5:53 pm 17:53 Mostly Cloudy 67 19.4 55 12.8 66 66 E 15 24 29.24 990 10 16 0.00 0.00
6:53 pm 18:53 Mostly Cloudy 66 18.9 55 12.8 68 68 ENE 13 20 29.25 990 10 16 0.00 0.00
7:53 pm 19:53 Mostly Cloudy 65 18.3 56 13.3 73 73 ENE 7 11 29.24 990 10 16 0.00 0.00
8:53 pm 20:53 Partly Cloudy 62 16.7 55 12.8 78 78 ENE 12 19 29.22 989 10 16 0.00 0.00
9:53 pm 21:53 Partly Cloudy 60 15.6 55 12.8 84 84 ENE 8 13 29.18 988 10 16 0.00 0.00
10:53 pm 22:53 Mostly Clear 60 15.6 55 12.8 84 84 ENE 5 7 29.21 989 10 16 0.00 0.00
11:18 pm 23:18 Mostly Cloudy 60 15.6 56 13.3 86 86 NNW 5 7 29.24 990 10 16 0.00 0.00
11:53 pm 23:53 Cloudy 59 15 56 13.3 90 90 NNW 5 7 29.25 990 10 16 0.00 0.00

Powered by AerisWeather